Weather History for KVSF - October, 2012

Change the Weather History Date:

Monday, October 15, 2012

  Actual Average Record
Temperature  
Mean Temperature 60 °F 47 °F  
Max Temperature 72 °F 59 °F 78 °F (2014)
Min Temperature 47 °F 36 °F 24 °F (2002)
Degree Days  
Heating Degree Days 5 18  
Month to date heating degree days 186 231  
Since 1 July heating degree days 372 483  
Cooling Degree Days 0 0  
Month to date cooling degree days 1 0  
Year to date cooling degree days 640 344  
Growing Degree Days 8 (Base 50)    
Moisture  
Dew Point 55 °F    
Average Humidity 77    
Maximum Humidity 97    
Minimum Humidity 57    
Precipitation  
Precipitation 0.17 in 0.15 in 4.04 in (2010)
Month to date precipitation 1.34 2.30  
Year to date precipitation 27.33 34.43  
Sea Level Pressure  
Sea Level Pressure 29.68 in    
Wind  
Wind Speed 3 mph (South)    
Max Wind Speed 20 mph    
Max Gust Speed 26 mph    
Visibility 5 miles    
Events Fog , Rain    
T = Trace of Precipitation, MM = Missing Value Source: NWS Daily Summary

Daily Weather History Graph

Daily Weather History Graph

Search for Another Location

Airport or City:

Trip Planner

Search our weather history database for the weather conditions in past years. The results will help you decide how hot, cold, wet, or windy it might be!

Date:

Astronomy

Oct. 15, 2012 Rise Set
Actual Time 7:04 AM EDT 6:06 PM EDT
Civil Twilight 6:35 AM EDT 6:35 PM EDT
Nautical Twilight 6:02 AM EDT 7:08 PM EDT
Astronomical Twilight 5:29 AM EDT 7:41 PM EDT
Moon 7:13 AM EDT (10/15) 6:01 PM EDT (10/15)
Length of Visible Light 11h 59m
Length of Day
11h 01m
New Moon, 0% of the Moon is Illuminated
Oct 15
New Moon
Oct 21
First Quarter
Oct 29
Full
Nov 6
Last Quarter
Nov 13
New

Hourly Weather History & Observations

Time (EDT) Temp. Dew Point Humidity Pressure Visibility Wind Dir Wind Speed Gust Speed Precip Events Conditions
1:30 AM 48.2 °F 46.4 °F 93% 29.85 in 6.0 mi Calm Calm - N/A   Mostly Cloudy
1:54 AM 50.0 °F 48.0 °F 93% 29.86 in 7.0 mi Calm Calm - N/A   Overcast
2:54 AM 50.0 °F 48.0 °F 93% 29.84 in 6.0 mi Calm Calm - N/A   Mostly Cloudy
3:11 AM 53.6 °F 50.0 °F 88% 29.82 in 10.0 mi Variable 3.5 mph - N/A   Scattered Clouds
3:54 AM 46.9 °F 45.0 °F 93% 29.82 in 1.0 mi Calm Calm - N/A   Mist
4:04 AM 48.2 °F 46.4 °F 93% 29.81 in 2.0 mi Calm Calm - N/A   Partly Cloudy
4:11 AM 50.0 °F 48.2 °F 94% 29.80 in 3.0 mi Calm Calm - N/A   Scattered Clouds
4:25 AM 48.2 °F 44.6 °F 87% 29.80 in 2.5 mi WNW 3.5 mph - N/A   Mostly Cloudy
4:34 AM 48.2 °F 46.4 °F 93% 29.79 in 5.0 mi Calm Calm - N/A   Overcast
4:54 AM 50.0 °F 48.0 °F 93% 29.79 in 7.0 mi NW 3.5 mph - N/A   Overcast
5:54 AM 53.1 °F 51.1 °F 93% 29.75 in 10.0 mi Calm Calm - N/A   Overcast
6:54 AM 54.0 °F 52.0 °F 93% 29.73 in 7.0 mi NNW 3.5 mph - N/A   Overcast
7:54 AM 54.0 °F 51.1 °F 90% 29.73 in 5.0 mi Calm Calm - N/A   Overcast
8:42 AM 57.2 °F 53.6 °F 88% 29.72 in 10.0 mi Calm Calm - N/A   Mostly Cloudy
8:54 AM 57.9 °F 54.0 °F 87% 29.73 in 10.0 mi Calm Calm - N/A   Mostly Cloudy
9:54 AM 63.0 °F 55.9 °F 78% 29.72 in 10.0 mi ENE 3.5 mph - N/A   Overcast
10:54 AM 66.9 °F 57.0 °F 70% 29.70 in 10.0 mi SE 6.9 mph - N/A   Overcast
11:54 AM 69.1 °F 57.0 °F 65% 29.67 in 10.0 mi SE 11.5 mph - N/A   Mostly Cloudy
12:54 PM 71.1 °F 55.0 °F 57% 29.64 in 10.0 mi SSW 13.8 mph 26.5 mph N/A   Clear
2:54 PM 69.1 °F 55.0 °F 61% 29.63 in 10.0 mi South 11.5 mph 16.1 mph N/A   Overcast
3:54 PM 64.9 °F 59.0 °F 81% 29.64 in 4.0 mi SW 3.5 mph - 0.02 in Rain Light Rain
4:54 PM 64.0 °F 61.0 °F 90% 29.63 in 5.0 mi Calm Calm - 0.04 in Rain Light Rain
5:41 PM 62.6 °F 60.8 °F 94% 29.62 in 2.0 mi Calm Calm - 0.03 in Rain Light Rain
5:54 PM 63.0 °F 60.1 °F 90% 29.62 in 2.5 mi Calm Calm - 0.03 in Rain Light Rain
6:03 PM 62.6 °F 60.8 °F 94% 29.61 in 0.8 mi Calm Calm - 0.00 in Rain Light Rain
6:16 PM 62.6 °F 60.8 °F 94% 29.62 in 2.0 mi Calm Calm - 0.01 in Rain Light Rain
6:24 PM 62.6 °F 60.8 °F 94% 29.61 in 5.0 mi Calm Calm - 0.01 in Rain Light Rain
6:54 PM 62.1 °F 60.1 °F 93% 29.62 in 2.5 mi Calm Calm - 0.02 in Rain Light Rain
7:06 PM 62.6 °F 59.0 °F 88% 29.61 in 3.0 mi Calm Calm - 0.01 in Rain Light Rain
7:14 PM 62.6 °F 59.0 °F 88% 29.61 in 2.5 mi Calm Calm - 0.02 in Rain Light Rain
7:38 PM 60.8 °F 60.8 °F 100% 29.61 in 1.2 mi South 3.5 mph - 0.04 in Rain Light Rain
7:45 PM 60.8 °F 59.0 °F 94% 29.61 in 3.0 mi South 4.6 mph - 0.04 in Rain Light Rain
7:54 PM 61.0 °F 59.0 °F 93% 29.62 in 4.0 mi South 3.5 mph - 0.05 in Rain Light Rain
8:40 PM 60.8 °F 57.2 °F 88% 29.62 in 2.5 mi SE 3.5 mph - 0.01 in Rain Light Rain
8:54 PM 61.0 °F 57.9 °F 90% 29.62 in 4.0 mi Calm Calm - 0.01 in   Overcast
9:06 PM 60.8 °F 57.2 °F 88% 29.62 in 1.5 mi Calm Calm - N/A   Overcast
9:14 PM 59.0 °F 57.2 °F 94% 29.62 in 0.5 mi Calm Calm - N/A Fog Fog
9:22 PM 60.8 °F 57.2 °F 88% 29.62 in 0.5 mi Calm Calm - N/A Fog Fog
9:36 PM 60.8 °F 57.2 °F 88% 29.62 in 2.5 mi Calm Calm - N/A   Overcast
9:38 PM 60.8 °F 57.2 °F 88% 29.62 in 3.0 mi Calm Calm - N/A   Overcast
9:54 PM 59.0 °F 57.0 °F 93% 29.62 in 5.0 mi Calm Calm - N/A   Overcast
10:06 PM 59.0 °F 57.2 °F 94% 29.62 in 1.5 mi Calm Calm - N/A   Overcast
10:26 PM 57.2 °F 57.2 °F 100% 29.63 in 0.8 mi Calm Calm - N/A   Overcast
10:34 PM 57.2 °F 57.2 °F 100% 29.62 in 1.0 mi Calm Calm - N/A   Overcast
10:49 PM 57.2 °F 55.4 °F 94% 29.62 in 2.5 mi Calm Calm - N/A   Overcast
10:54 PM 57.0 °F 55.9 °F 96% 29.63 in 3.0 mi Calm Calm - N/A   Overcast
11:09 PM 57.2 °F 55.4 °F 94% 29.63 in 6.0 mi Calm Calm - N/A   Overcast
11:16 PM 57.2 °F 55.4 °F 94% 29.63 in 8.0 mi Calm Calm - N/A   Overcast
11:54 PM 57.0 °F 54.0 °F 89% 29.63 in 10.0 mi Calm Calm - N/A   Overcast